Theta_e
350 350 349 349 349 349 349 348 348 347 348 351 352 353 354 355 357 357 357 358 358 358 358 358 360 360 360 360 360 359 356 354 353 350 348 345 343 341 340 340 341 342
350 350 351 350 350 350 350 349 349 348 347 349 352 354 355 356 356 357 357 357 358 358 359 358 359 360 360 360 359 358 356 354 352 351 348 346 344 342 340 342 342 343
350 350 350 349 349 349 349 349 350 349 348 348 351 353 354 356 356 357 357 357 357 358 358 358 359 360 360 360 359 358 357 354 352 351 350 348 347 344 342 341 342 343
350 350 350 350 350 349 350 349 349 349 350 348 349 351 354 355 355 356 356 359 357 357 358 358 358 359 360 360 359 358 358 357 355 352 351 350 349 347 345 344 343 343
350 350 350 350 350 351 351 349 348 348 349 349 349 351 354 355 354 354 355 356 357 357 358 358 359 359 360 359 359 358 357 356 356 353 351 350 350 348 347 346 344 342
351 351 351 350 350 350 349 349 349 349 349 349 349 351 352 353 354 354 354 355 356 356 357 357 358 358 359 359 359 359 358 356 356 353 351 351 350 349 348 347 346 344
350 350 350 351 350 350 350 350 350 350 349 350 351 350 352 352 353 354 354 354 355 356 356 357 357 358 359 359 358 358 358 358 356 354 353 351 352 350 349 349 348 346
350 350 350 350 350 350 349 350 350 351 350 350 350 351 352 352 353 354 354 354 354 355 356 357 357 358 358 359 358 357 357 357 356 355 353 353 352 350 350 350 350 348
350 350 350 350 349 349 349 349 350 351 352 350 349 350 353 353 353 354 354 354 354 355 355 356 356 357 358 358 358 358 357 357 357 356 354 353 352 352 351 351 349 349
350 350 350 349 348 349 349 349 350 350 352 351 350 350 351 354 354 354 354 354 354 354 355 355 356 356 357 358 358 358 357 357 358 357 356 355 354 354 353 351 349 349
349 349 349 349 349 349 349 349 350 350 351 352 352 351 351 352 354 355 354 354 353 353 354 354 355 356 356 356 358 358 358 358 358 358 357 356 356 355 355 353 351 350
349 349 349 349 349 349 349 349 350 350 350 352 352 352 352 352 352 354 354 354 354 354 354 354 355 356 356 356 357 358 358 358 358 358 357 357 357 356 356 356 354 353
348 348 349 349 349 349 350 350 350 350 350 350 352 352 352 351 351 352 354 354 355 355 354 355 355 356 356 356 357 357 357 357 357 357 357 357 358 357 357 356 355 355
349 349 349 349 350 350 350 350 350 350 351 351 353 352 352 352 352 351 353 354 354 355 355 356 355 355 356 356 357 357 357 357 357 357 357 357 357 358 358 357 357 356
349 349 350 350 350 350 350 350 350 350 351 352 352 352 353 353 354 353 352 352 354 355 355 356 355 355 355 355 356 356 357 357 357 357 357 357 357 357 357 358 357 357
349 349 349 349 349 349 349 350 350 350 350 351 351 352 353 354 354 354 353 352 352 353 355 355 355 356 348 337 340 355 357 357 357 357 357 357 356 356 356 357 357 358
349 349 349 349 349 349 350 350 350 350 350 351 351 352 352 354 354 353 353 353 353 352 353 353 355 354 338 332 331 334 352 356 356 356 357 357 356 356 356 356 357 358
348 349 349 349 349 349 350 350 350 350 350 350 350 351 352 353 352 353 354 354 354 353 352 353 354 341 332 330 330 329 334 355 357 356 356 356 356 356 357 357 357 357
348 348 348 349 349 350 350 350 350 350 350 350 350 351 352 351 352 352 352 353 354 354 353 353 354 338 330 328 328 327 327 339 356 356 356 356 357 357 357 357 358 357
348 348 348 348 349 350 350 350 350 349 350 351 351 352 351 351 351 352 352 352 353 353 353 354 354 340 329 326 325 325 325 330 352 355 356 356 356 357 357 358 358 357
348 348 348 349 349 350 350 350 350 350 350 351 351 351 351 351 351 351 352 352 352 353 353 353 354 336 327 324 322 322 323 326 348 352 354 355 357 357 357 358 358 358
349 349 349 349 349 350 349 349 350 350 350 351 351 351 352 353 353 353 352 352 352 352 352 351 353 333 326 323 320 320 322 337 346 350 352 354 355 356 357 358 358 358
349 349 349 349 349 349 349 349 349 350 351 352 351 351 351 351 352 352 353 353 352 352 351 351 352 338 324 320 319 318 322 341 345 348 350 352 353 355 356 357 357 358
350 350 349 350 350 349 349 350 351 351 351 353 351 351 350 351 352 353 353 353 352 352 352 351 352 342 322 318 317 316 326 344 346 347 349 350 351 353 355 356 357 350
351 351 350 350 350 350 351 350 351 351 352 353 352 352 352 353 353 352 352 353 353 353 346 349 352 344 322 318 316 315 326 345 347 347 347 348 349 350 353 354 355 352
352 352 351 351 351 351 352 352 353 353 353 353 353 353 352 353 353 352 351 352 352 352 352 351 351 353 341 317 315 314 318 344 348 347 347 347 349 349 350 352 353 354
Wind_Speed
11 10 11 10 9 9 8 8 7 8 7 7 8 8 9 7 7 7 7 6 6 6 6 6 6 6 5 5 5 5 5 5 4 4 5 5 5 6 6 6 6 6
13 12 10 9 8 8 8 8 8 8 8 8 8 7 6 6 7 7 7 7 6 6 6 6 6 6 6 5 5 5 5 4 5 3 5 6 6 5 6 7 7 5
12 12 12 12 11 11 10 8 8 7 8 8 7 6 6 6 7 7 7 7 7 6 6 6 6 6 6 6 6 5 5 6 6 4 5 7 5 6 6 6 5 6
13 13 12 12 11 11 10 8 8 7 6 7 9 8 7 6 7 7 7 7 7 6 6 6 7 6 6 6 6 6 6 6 6 5 6 4 5 5 6 5 5 4
14 13 12 11 10 10 9 10 10 9 9 9 7 7 7 7 8 8 8 8 8 6 6 6 6 6 6 6 7 6 6 6 5 5 6 6 5 5 5 5 6 7
12 12 12 12 11 10 10 11 11 10 10 9 9 8 8 8 8 8 8 8 7 7 7 6 6 6 6 6 6 6 6 6 6 6 6 7 6 5 4 5 6 7
13 12 12 11 11 11 11 11 10 10 10 9 7 8 9 9 10 10 10 9 9 8 8 8 7 6 6 5 6 6 6 6 6 7 8 6 6 6 5 6 7 8
13 12 12 11 12 11 11 11 10 10 10 8 9 9 9 9 10 9 9 9 8 9 9 8 7 7 7 6 6 7 7 5 6 7 7 7 6 7 7 5 6 7
13 12 12 13 13 12 11 11 10 10 9 10 10 8 8 9 9 9 9 8 9 8 9 8 8 7 6 7 7 8 7 7 7 7 8 7 8 8 7 6 6 7
13 13 13 12 11 12 12 12 10 9 9 10 10 8 8 8 8 9 8 9 9 9 9 9 9 8 7 7 8 8 8 8 7 7 7 7 8 7 7 7 8 7
14 13 14 14 13 10 12 11 10 9 8 10 9 8 9 8 8 8 9 9 9 11 10 10 10 10 9 8 7 7 8 7 7 7 7 7 7 7 6 7 7 8
15 14 14 15 14 12 12 11 10 11 10 8 9 10 9 8 10 8 10 10 10 11 11 11 10 9 10 9 8 7 7 7 7 7 7 7 7 7 7 7 7 8
15 15 14 14 14 14 12 11 11 10 10 10 9 9 9 8 9 10 10 10 10 10 11 10 10 9 9 9 9 9 9 8 8 7 7 7 7 8 7 9 9 8
15 15 14 14 13 12 12 12 12 12 11 11 9 10 10 10 9 10 9 9 10 10 10 9 9 9 9 10 10 10 8 8 8 8 8 7 7 7 7 7 8 8
14 13 12 12 12 12 12 12 12 12 12 11 11 11 9 10 10 9 10 11 10 10 10 9 9 10 9 10 10 11 9 9 8 8 8 7 8 8 7 7 9 10
13 12 11 11 11 12 13 13 12 12 11 12 12 12 11 10 10 11 10 10 11 11 10 9 10 9 12 17 14 10 9 8 8 8 8 7 7 7 7 8 9 8
12 12 11 12 13 12 12 12 12 11 11 11 11 11 11 11 10 11 11 10 10 10 10 10 10 10 16 15 16 16 11 10 10 9 8 7 8 8 8 8 7 8
13 13 13 13 13 13 13 12 11 11 12 12 11 12 11 10 11 11 11 10 10 12 12 11 11 14 16 16 16 17 14 11 8 7 7 7 7 8 8 7 7 7
14 14 15 14 14 14 12 11 12 13 13 12 13 12 10 11 12 11 12 11 11 12 13 11 12 14 15 16 16 16 17 13 9 9 7 8 8 8 8 8 7 7
14 14 14 14 13 13 12 13 13 14 13 11 11 10 11 12 12 13 12 11 12 12 12 11 12 13 16 17 16 16 16 14 9 9 9 9 10 9 8 8 9 8
14 14 14 14 13 13 13 14 14 12 13 12 10 11 12 13 13 13 12 12 12 12 11 11 12 15 15 16 16 16 16 14 8 8 8 10 10 10 11 10 9 8
14 14 14 13 13 13 14 14 13 14 14 12 12 12 11 10 10 11 13 13 13 12 11 13 12 15 15 16 16 16 16 10 8 8 8 10 11 11 11 10 10 10
14 15 14 14 14 14 14 14 14 14 13 11 12 11 10 11 12 11 11 11 11 12 14 14 13 14 16 16 16 16 12 8 8 7 8 9 12 11 10 10 10 11
15 15 15 15 14 15 14 14 14 12 13 11 12 12 12 12 10 10 11 10 12 14 13 12 12 13 16 16 16 17 15 10 8 8 8 10 11 11 10 10 12 15
14 15 15 15 14 15 15 15 14 14 12 12 11 11 11 10 11 10 11 11 11 12 15 16 13 12 15 17 18 18 16 10 9 7 8 10 10 10 10 10 10 11
13 14 14 14 15 15 14 14 13 10 10 10 11 9 10 9 10 9 11 10 10 11 10 12 13 12 12 18 18 19 20 12 9 8 9 11 10 10 9 9 10 10
Wind_Direction
194 194 196 195 198 196 190 187 187 187 189 185 189 194 194 195 188 194 198 198 195 191 189 189 188 188 188 189 189 192 194 202 202 181 189 186 208 199 207 212 213 215
196 195 196 196 196 193 193 190 188 187 188 192 197 189 185 178 192 188 195 199 195 195 183 187 190 188 187 187 187 191 200 194 206 174 188 196 211 197 215 208 209 212
194 196 196 195 197 196 194 191 187 189 188 196 188 181 184 186 183 189 195 194 200 196 189 187 189 192 190 188 183 194 202 197 207 189 191 207 199 201 219 206 210 203
195 196 197 199 198 196 191 185 190 190 185 179 196 193 187 187 183 185 193 196 199 203 194 190 193 189 191 189 185 196 204 207 208 180 198 206 204 208 215 199 215 216
193 195 198 200 198 194 188 192 195 193 195 199 191 182 186 186 186 190 190 198 201 201 198 201 193 193 188 190 189 194 197 208 197 185 198 209 208 199 212 191 210 221
196 196 196 196 194 190 192 198 198 196 200 195 196 187 193 189 192 194 193 196 196 198 201 198 198 196 189 191 190 201 195 200 195 187 203 214 213 202 210 198 208 220
194 195 197 196 193 192 195 198 197 197 198 200 179 193 189 192 198 199 198 200 199 203 203 205 203 199 192 187 194 202 203 201 187 193 205 219 211 212 211 207 210 222
194 194 194 192 193 193 197 197 198 198 196 185 191 197 189 196 199 201 201 200 199 205 208 208 206 203 193 186 197 202 207 197 196 194 205 216 207 224 212 210 212 224
191 192 192 194 196 196 196 195 196 197 189 191 200 194 194 198 200 200 199 198 202 204 207 211 210 205 194 195 202 206 206 204 202 199 202 207 210 220 218 208 218 226
191 192 192 193 196 199 199 199 195 193 188 196 199 191 190 199 201 199 197 196 202 206 207 212 211 208 200 201 207 207 210 211 205 205 207 212 216 219 213 205 220 229
193 192 193 195 198 197 201 197 194 188 190 197 191 193 195 192 200 198 198 198 204 207 209 211 213 210 208 206 210 210 212 213 211 209 210 213 217 220 214 211 217 224
192 193 195 197 197 198 200 198 195 195 193 195 190 195 195 192 197 197 202 204 208 210 211 213 213 212 212 213 209 208 212 216 215 213 215 215 216 217 216 215 219 226
193 195 195 196 197 199 198 197 196 195 194 195 193 197 195 197 198 201 207 208 212 213 214 215 214 212 214 215 216 213 213 216 216 216 218 217 221 220 217 225 231 230
195 195 195 196 196 195 196 196 196 198 199 198 192 198 201 202 200 202 205 209 215 215 217 214 214 214 215 216 216 214 213 215 215 217 218 221 225 224 220 221 223 228
193 194 195 194 194 194 196 197 197 199 198 196 197 201 203 203 203 202 204 212 215 214 215 212 214 216 215 214 215 217 214 218 217 218 218 221 225 226 222 221 235 237
190 190 190 190 192 195 198 199 199 199 197 199 202 204 204 203 205 207 208 208 212 213 212 212 215 218 216 212 210 213 212 217 222 223 222 223 227 230 228 223 227 229
185 189 186 190 194 197 198 199 200 198 199 203 204 203 203 203 204 208 211 211 210 210 211 215 219 220 215 208 210 210 209 215 220 225 223 224 225 229 235 230 229 229
186 185 187 193 193 198 198 197 196 198 202 203 202 203 205 203 207 211 212 213 214 217 218 218 223 222 211 207 206 207 207 215 215 221 219 223 224 226 234 235 235 235
185 186 191 193 196 196 194 192 196 201 203 202 204 204 201 205 210 210 213 214 215 217 222 220 227 221 212 209 206 203 206 210 224 222 219 224 224 225 230 232 236 237
186 189 193 196 194 193 192 195 198 203 203 202 204 201 204 208 209 211 213 214 216 219 223 227 228 223 211 210 207 202 202 202 222 223 225 229 229 227 227 227 229 232
188 191 195 194 193 193 194 198 199 201 202 202 199 201 204 208 208 210 214 215 217 219 224 230 233 223 211 208 206 201 199 197 214 218 224 233 233 232 233 233 232 227
188 191 195 194 194 194 197 200 200 201 202 200 202 206 209 209 210 211 213 214 215 216 221 230 233 220 211 207 201 199 193 194 204 213 218 231 236 236 235 235 233 231
189 191 194 195 194 195 199 201 202 203 205 200 204 206 204 206 210 209 212 212 211 215 221 229 235 220 208 205 199 192 184 198 198 209 219 227 236 235 236 236 233 232
190 191 194 195 193 197 199 202 204 204 204 198 201 203 207 208 206 213 211 211 213 216 217 224 232 220 201 202 196 186 187 191 197 203 217 226 236 237 236 238 238 232
191 193 195 194 194 199 201 202 203 203 201 198 202 205 210 207 208 212 212 214 215 218 219 222 231 222 196 198 194 190 193 202 199 201 216 227 229 237 234 237 241 237
192 193 196 194 197 202 202 205 203 200 196 195 203 203 208 208 208 210 214 215 213 217 220 221 227 226 199 196 194 194 193 196 200 201 218 226 227 228 236 234 237 243